Location: Le Rocchette
(44.3500°N, 7.8333°E)
Time: 23:16:46
(UTC+00:00)

STARLINK-79 - Pass Details

Date: 17 November 2019
Orbit: 529 x 531 km, 53.0° (Epoch: 08 December)

Event Time Altitude Azimuth Distance (km) Brightness Sun altitude
Exits shadow 05:31:35 - 242° (WSW) 2,160 6.2 -10.0°
Reaches altitude 10° 05:32:33 10° 244° (WSW) 1,773 5.8 -9.8°
Maximum altitude 05:36:32 71° 328° (NNW) 563 3.5 -9.1°
Drops below altitude 10° 05:40:34 10° 53° (NE) 1,782 6.7 -8.5°
Sets 05:42:48 0° 56° (NE) 2,680 7.7 -8.1°
